Theta_e
295 295 295 295 296 296 299 299 299 298 299 299 300 300 301 301 300 300 297 301 299 296 296 298 297 293 293 292 287 294 291 293 291 287 286 286 292 296 293 297 295 292 290 290 293 290 287 304 303 299 305 310 309 309
295 295 295 294 296 297 299 299 299 299 299 299 300 300 301 300 299 300 295 297 299 295 293 297 297 296 293 291 287 285 292 294 292 289 288 295 288 296 295 291 301 291 296 295 296 295 305 307 307 309 310 308 308 309
294 295 294 294 295 296 297 298 298 298 299 299 299 299 300 299 298 297 296 294 295 289 290 291 290 293 294 292 293 284 291 301 299 303 300 297 291 298 293 295 298 301 304 298 298 302 304 306 308 309 310 309 310 311
293 293 293 294 294 295 296 298 298 298 299 298 299 299 300 298 298 297 297 297 292 289 288 289 295 291 294 293 293 295 299 302 305 305 298 294 295 301 297 299 299 302 302 299 300 303 305 305 307 309 308 310 310 310
293 293 293 293 293 295 295 296 297 298 298 298 298 298 299 298 297 298 299 299 295 288 288 290 293 293 294 292 288 291 300 297 297 292 288 290 296 298 298 298 296 302 300 298 297 303 303 304 307 308 307 306 307 306
294 293 293 292 293 293 295 295 296 297 297 298 298 298 298 298 297 297 293 297 298 297 290 286 292 290 292 291 288 287 286 288 287 286 286 288 289 293 291 290 299 303 302 305 301 304 304 306 305 307 306 307 306 305
294 293 293 292 292 294 294 295 295 296 297 297 297 297 298 296 297 294 291 293 296 296 291 286 285 290 291 291 289 287 288 285 286 286 286 288 288 289 289 288 293 293 297 300 300 300 299 302 302 304 303 303 302 304
294 293 293 292 293 294 294 294 294 295 295 296 297 297 296 295 295 294 298 296 296 293 292 285 284 286 290 287 286 289 287 288 286 287 287 287 288 287 285 289 290 291 293 294 297 298 300 300 301 300 303 304 301 301
294 293 293 292 292 294 294 293 293 294 295 296 296 297 298 296 296 296 296 296 299 294 287 286 283 281 290 288 288 289 289 282 287 284 284 287 287 283 286 290 291 292 291 291 293 296 296 295 296 297 298 299 299 299
294 293 292 292 292 292 294 293 294 294 295 296 297 294 287 296 296 296 296 293 293 292 291 286 289 285 288 287 285 285 285 281 278 280 286 281 280 286 287 289 292 292 292 293 292 292 293 293 293 295 296 298 299 298
294 293 292 292 292 292 293 293 293 294 296 296 293 292 296 298 295 293 286 285 287 283 288 288 287 285 290 285 283 285 282 282 277 279 280 278 278 283 288 289 290 291 291 291 292 292 293 293 293 293 295 296 297 297
294 293 293 292 292 292 293 293 293 293 292 291 290 293 294 292 288 282 281 284 283 281 286 286 285 288 289 292 286 285 280 282 275 284 280 276 281 286 287 289 291 292 291 291 292 291 292 292 293 293 294 294 295 296
294 293 293 292 292 293 293 293 293 293 293 293 288 287 287 286 278 277 275 279 282 285 287 287 285 289 289 291 286 284 278 278 286 281 278 281 285 288 289 290 291 293 293 292 291 292 292 292 293 293 293 293 296 294
293 293 293 292 292 293 293 293 293 292 291 287 283 278 280 279 280 282 283 285 288 289 289 290 287 287 288 284 285 278 281 283 277 275 276 283 285 287 290 291 291 290 289 291 292 291 289 288 286 286 286 288 288 288
293 293 292 292 292 292 292 292 292 292 289 284 284 277 280 285 287 287 289 289 291 292 291 289 289 288 285 281 283 280 276 274 277 277 282 286 288 289 289 290 290 290 288 291 292 290 286 286 286 289 286 288 291 286
293 292 292 292 291 291 292 292 292 292 288 285 284 281 284 283 284 284 286 288 291 291 292 290 283 281 279 282 278 276 275 275 280 285 285 286 287 287 290 290 290 290 291 292 292 290 290 287 287 290 290 290 287 287
292 290 291 291 291 292 291 290 290 284 282 281 282 286 285 285 286 286 288 288 291 288 284 285 278 277 285 279 277 282 280 284 283 283 286 287 287 287 288 289 289 291 291 292 292 291 290 291 291 291 290 291 291 290
290 293 291 291 291 290 290 288 285 282 278 281 280 284 284 286 285 287 289 290 288 287 286 281 286 278 278 276 279 284 282 283 285 286 285 287 287 287 287 287 287 288 289 291 292 293 292 292 292 292 292 292 291 290
293 293 292 291 291 289 284 284 285 278 280 283 284 285 285 284 287 288 289 289 290 291 289 285 280 279 280 284 285 283 282 284 283 285 285 285 285 284 285 286 286 287 287 287 288 290 292 293 292 293 292 292 291 291
290 293 291 291 291 286 281 282 287 281 279 282 284 283 284 284 286 287 288 287 287 285 282 280 281 283 284 287 289 286 286 288 287 285 284 285 286 285 284 284 284 286 286 287 286 285 285 289 291 290 292 291 290 290
288 292 292 291 287 287 285 283 281 283 283 281 284 283 282 285 284 284 284 286 283 282 281 284 285 288 289 289 290 289 287 287 286 286 285 283 284 285 284 284 284 284 284 284 282 282 283 283 284 285 285 287 292 292
289 292 290 289 285 285 283 286 283 285 282 282 282 283 281 280 281 283 285 282 281 283 285 285 286 287 286 285 286 287 285 285 284 282 280 280 282 282 282 282 282 281 282 283 282 281 281 282 282 283 283 285 284 287
287 289 287 286 281 280 279 286 279 281 277 279 281 278 279 280 282 286 280 282 284 288 286 286 286 287 286 285 285 284 284 283 282 282 280 281 282 282 282 281 282 280 280 281 282 282 281 281 281 281 282 283 283 284
288 285 281 280 280 277 281 279 281 279 279 278 277 275 277 280 282 279 277 281 285 286 284 284 285 284 284 282 281 282 282 282 281 280 281 280 280 280 281 280 281 281 281 281 281 281 280 280 280 280 280 280 281 281
277 279 280 277 281 278 276 276 276 277 275 276 275 276 277 280 276 276 276 280 283 283 283 284 284 284 282 281 282 282 281 281 280 279 280 280 280 279 279 279 279 280 281 279 278 278 278 278 278 278 279 279 279 279
271 278 277 277 278 276 276 274 274 275 276 275 276 278 278 276 272 272 276 281 283 283 284 284 283 283 282 283 281 280 280 282 280 279 280 281 279 278 277 276 276 278 280 279 277 276 276 276 277 276 277 277 278 279
273 276 279 283 280 279 277 278 279 277 274 273 275 274 273 270 271 276 280 280 280 282 284 285 284 282 282 281 281 281 281 281 279 279 280 280 280 280 279 276 275 277 278 277 277 276 275 275 275 275 275 277 278 278
277 279 274 277 277 279 275 276 274 274 275 277 276 271 271 272 273 277 278 279 280 281 282 283 283 283 281 280 280 280 279 279 278 278 279 279 280 279 277 278 278 275 276 277 277 276 275 275 274 274 274 275 277 278
277 280 279 275 276 276 276 275 276 278 280 278 275 274 275 277 278 279 278 279 281 281 279 278 278 280 279 279 279 280 279 278 276 272 271 273 275 277 278 277 276 276 277 276 275 276 276 276 275 274 275 276 277 279
275 280 276 275 273 274 277 280 279 280 280 280 279 276 276 277 278 280 280 279 279 279 279 279 279 278 277 276 275 275 278 278 277 276 274 273 274 275 275 275 275 275 275 276 275 275 275 275 274 275 274 274 275 275
276 278 274 274 271 273 274 277 277 277 277 277 278 278 276 277 278 278 279 279 280 279 278 277 277 278 277 276 276 275 273 275 273 273 274 275 275 275 274 274 274 275 275 274 273 273 272 272 272 271 271 271 271 272
275 273 272 270 270 273 276 276 275 274 275 275 274 276 275 274 273 275 274 277 277 277 275 277 276 275 277 277 276 276 275 274 273 273 270 274 274 273 274 274 274 274 273 272 272 271 270 270 269 269 268 268 268 269
273 273 272 271 270 270 272 273 271 270 272 272 271 272 274 273 270 273 274 274 275 277 276 277 277 276 275 275 274 274 273 273 270 269 268 266 265 268 271 273 274 273 272 271 271 270 269 268 267 267 266 266 266 266
Wind_Speed
19 19 20 20 23 23 25 22 19 18 17 18 18 20 21 20 20 10 2 6 3 3 5 7 8 6 5 6 7 15 12 15 11 20 11 6 14 21 17 22 24 17 15 14 20 17 20 21 22 26 11 15 8 10
20 20 19 20 22 23 23 19 18 17 16 17 19 20 19 19 17 13 3 3 5 2 3 3 2 4 4 5 4 3 16 15 13 10 7 8 4 6 10 14 24 16 14 14 16 15 10 19 23 14 13 14 13 11
19 20 19 20 21 21 22 20 17 18 18 19 19 19 19 18 15 9 2 3 1 1 1 3 1 2 5 6 7 6 10 20 14 15 8 6 7 7 11 12 19 19 22 14 13 16 22 21 16 10 12 14 16 14
19 18 19 20 20 21 21 21 20 19 20 20 20 19 17 16 17 11 4 2 1 3 3 5 5 3 8 11 13 18 17 11 10 10 6 3 6 8 9 7 10 10 17 15 19 19 18 11 14 14 9 8 8 6
18 18 18 19 20 21 20 21 21 20 21 22 22 21 19 15 14 8 5 3 2 2 3 1 2 2 8 10 12 15 8 3 2 4 3 2 2 3 2 2 7 10 12 12 13 17 14 15 9 12 12 10 10 9
17 18 17 18 19 20 21 21 22 20 22 23 23 22 18 15 9 6 3 4 5 1 3 2 1 5 10 11 12 11 8 5 4 3 3 2 3 1 4 4 6 9 3 8 9 1 4 2 2 5 8 10 9 7
17 17 18 17 18 19 19 20 21 22 23 24 23 20 16 13 8 3 4 5 9 4 3 3 3 1 7 5 2 4 6 3 2 2 2 1 2 3 1 3 6 0 4 3 3 2 3 4 3 5 5 5 4 7
16 15 16 16 19 17 18 18 21 23 25 24 24 19 14 14 6 5 4 6 7 5 4 4 2 1 6 3 3 4 4 3 6 2 1 2 2 0 3 4 6 5 3 2 5 6 4 2 2 4 6 8 10 10
16 15 16 15 17 17 16 18 21 24 26 26 23 19 5 4 2 2 15 14 5 5 3 2 3 3 4 3 2 3 4 5 5 5 5 5 3 4 3 6 6 8 5 4 3 5 3 3 3 4 5 8 10 9
16 15 16 14 16 18 16 17 20 24 26 23 11 3 3 2 10 13 5 3 3 3 3 2 3 3 4 2 3 2 3 3 4 5 3 5 4 4 6 6 5 5 7 7 6 7 4 4 3 2 3 5 7 9
16 15 15 13 15 16 17 15 17 22 15 3 3 3 7 7 4 2 3 3 3 3 2 2 5 3 4 3 3 3 2 0 2 3 3 2 3 5 7 7 6 6 4 3 4 4 6 7 5 4 5 5 7 11
16 16 14 15 14 16 15 13 14 11 7 9 8 7 5 4 2 3 3 3 4 0 2 0 5 3 3 2 2 3 3 1 4 0 1 3 3 5 6 7 8 8 6 4 3 4 3 4 6 6 5 4 4 6
15 16 14 14 14 16 13 12 13 14 15 3 4 5 3 2 3 5 4 3 1 3 3 3 3 2 4 1 3 2 3 4 1 1 3 6 8 7 8 8 8 10 10 7 6 5 6 5 5 4 3 4 3 4
14 14 13 13 14 14 12 11 11 10 6 4 3 5 5 4 6 3 4 2 5 2 2 1 3 2 2 3 2 4 2 2 2 6 5 6 7 7 7 8 9 10 8 8 9 9 8 7 5 3 2 2 3 4
13 13 13 14 14 13 12 9 9 5 4 4 4 5 5 2 2 2 4 2 2 2 2 1 1 2 2 3 1 3 2 3 3 5 8 6 6 8 8 9 9 8 4 6 7 6 5 5 3 2 1 3 3 5
11 12 11 8 4 4 3 8 4 2 3 4 6 5 3 3 5 4 5 5 4 2 2 2 1 1 2 1 3 5 4 5 4 7 5 4 7 8 8 8 9 8 8 7 7 6 5 4 4 5 2 1 3 4
7 4 7 4 3 5 3 4 2 4 5 5 4 3 5 4 3 7 6 6 4 4 2 2 3 5 2 4 5 4 1 6 8 6 4 4 5 5 5 6 8 8 8 8 7 6 5 4 4 4 5 1 3 4
5 3 6 7 4 3 3 4 3 4 7 6 5 5 6 4 3 5 7 5 5 6 3 3 3 3 4 5 4 6 5 5 5 5 5 3 5 6 5 6 6 7 9 9 7 5 3 3 4 3 3 1 3 3
9 5 9 8 5 2 2 4 4 5 6 4 5 4 4 5 7 6 7 6 6 3 2 3 5 6 8 5 7 6 5 6 6 5 6 4 4 3 4 5 5 7 7 7 11 8 8 6 3 4 1 3 4 4
15 13 12 9 10 4 4 3 3 4 4 2 4 6 7 6 6 7 7 7 7 5 5 5 6 6 4 4 4 7 7 5 5 5 7 4 2 2 5 5 5 6 6 6 7 8 9 9 6 6 5 2 2 2
7 7 13 9 5 6 4 4 5 4 4 4 3 5 4 6 6 7 8 8 8 6 8 8 6 2 4 4 4 5 5 5 3 1 2 3 2 2 3 4 5 5 6 6 5 6 7 7 7 9 8 8 4 3
3 12 5 7 5 6 7 7 4 2 4 5 4 5 4 6 7 9 8 9 10 8 7 6 4 6 6 7 6 6 7 6 6 6 4 4 1 1 3 3 4 5 5 5 4 6 7 7 8 8 9 8 8 8
1 5 4 6 7 6 5 7 6 6 5 3 4 4 4 4 4 6 5 8 8 5 6 7 6 7 7 8 7 7 7 7 5 5 4 3 2 1 2 3 3 3 5 5 5 5 6 8 9 9 9 8 8 7
3 5 5 8 11 5 5 6 5 4 5 6 4 4 3 3 4 4 7 9 5 4 7 10 8 8 7 10 8 7 6 5 5 5 3 2 1 1 3 4 4 4 5 5 6 6 6 7 9 9 9 9 10 9
6 8 8 8 8 9 9 7 7 7 6 8 6 4 3 4 4 5 7 5 6 7 7 9 9 9 10 9 8 8 8 5 5 4 4 1 2 3 3 3 4 4 5 4 5 7 8 8 8 9 11 11 12 13
11 10 9 8 8 8 8 7 9 10 9 6 6 2 3 3 4 6 3 3 3 5 7 7 8 9 8 9 9 8 7 4 4 3 2 1 1 2 3 4 4 4 5 4 6 8 10 10 11 13 12 15 15 14
9 8 6 2 2 5 4 4 5 5 5 6 4 5 5 6 6 1 3 2 0 1 4 6 6 7 7 7 7 7 6 5 2 2 3 1 0 1 1 3 4 5 7 7 8 9 10 11 12 12 13 13 13 12
8 7 6 8 7 6 5 7 7 7 5 4 5 6 5 4 1 3 3 2 1 3 5 5 5 6 8 8 7 6 5 5 5 3 2 3 3 1 2 2 3 6 7 7 8 8 9 10 12 13 14 14 13 13
5 8 8 8 5 4 6 7 7 5 4 5 6 5 4 2 3 2 3 3 4 7 7 8 7 7 7 6 5 4 4 4 5 5 5 3 2 2 2 4 5 6 6 7 10 10 11 11 12 13 16 14 14 14
3 4 6 9 7 8 4 1 2 5 3 1 3 3 3 3 4 1 3 4 5 6 7 8 7 7 7 6 6 4 3 1 0 2 3 2 3 4 3 4 5 6 6 7 8 10 12 11 13 11 11 11 10 11
1 1 3 3 4 4 4 5 5 4 2 2 1 1 3 4 4 4 5 4 4 5 6 6 5 4 5 3 4 5 4 3 3 4 3 2 1 2 3 4 5 5 6 7 7 8 9 10 10 11 12 12 14 13
3 4 3 4 4 3 1 1 1 2 2 3 3 2 3 3 4 4 3 1 3 4 3 4 5 4 3 5 6 5 9 7 5 4 3 1 2 4 4 4 4 4 5 6 6 6 9 10 9 10 10 12 13 13
3 4 4 4 4 5 2 2 2 3 2 2 3 3 2 3 2 4 3 4 4 2 3 4 7 7 7 7 7 6 7 6 8 7 7 6 5 4 4 3 3 4 5 5 6 7 9 11 10 12 12 12 12 13
Wind_Direction
324 323 322 324 323 326 328 330 334 339 340 340 341 342 344 342 344 348 10 328 300 214 192 184 175 188 200 195 232 260 281 234 220 219 213 198 231 203 220 202 196 184 190 204 220 219 232 218 229 229 212 217 224 231
322 322 321 323 324 327 332 337 338 342 345 341 337 340 347 341 343 341 291 355 326 255 30 15 234 216 208 255 243 236 262 204 192 191 210 238 231 189 185 205 187 198 200 196 207 219 236 227 255 235 229 254 249 249
320 323 327 321 322 327 332 335 341 340 341 339 333 334 343 347 331 326 300 335 336 277 228 202 200 281 290 249 229 256 263 223 197 200 188 209 208 215 211 218 173 192 193 218 213 234 230 239 235 247 236 224 244 244
313 317 321 319 320 325 327 332 329 329 331 334 337 329 332 340 333 293 340 51 23 284 254 142 186 256 293 326 298 269 231 265 189 197 164 200 214 204 224 233 228 183 193 203 217 232 209 238 264 240 234 241 245 236
307 313 319 316 314 320 324 325 325 325 325 327 333 331 324 335 336 259 277 81 150 267 318 105 207 27 340 329 329 340 188 256 120 107 73 132 52 163 11 15 258 208 202 214 228 236 241 232 209 229 212 202 213 215
300 305 311 314 309 313 319 318 321 322 322 323 325 328 320 321 336 254 303 166 3 235 280 258 128 266 337 346 344 5 2 43 32 79 108 71 359 297 141 197 232 223 121 257 228 89 291 7 67 233 217 209 206 218
298 302 308 313 306 308 315 316 320 323 322 320 321 322 317 307 304 319 339 8 333 271 257 269 296 226 341 346 21 352 3 18 57 72 56 83 75 27 202 159 164 292 308 206 92 125 182 179 204 184 183 176 146 198
294 299 303 306 306 312 317 318 318 319 319 317 317 312 306 286 263 242 179 292 326 257 260 283 293 229 360 354 29 0 3 13 26 46 103 40 112 96 69 105 101 103 123 160 205 212 261 40 272 201 205 190 187 201
289 292 296 301 303 315 313 317 317 318 317 315 307 300 267 246 266 311 326 301 236 274 267 277 305 353 333 16 30 45 22 36 1 19 25 321 29 52 49 91 93 68 81 83 134 174 187 208 221 191 200 195 206 191
283 285 290 298 299 306 316 315 318 319 315 305 285 267 315 13 326 290 193 229 203 241 208 278 219 49 318 3 47 63 61 31 30 31 347 27 32 13 5 15 33 34 29 21 102 77 84 94 94 132 183 192 183 166
275 276 284 289 297 302 314 319 325 325 293 302 318 293 338 310 267 267 258 253 221 205 184 61 5 61 32 5 52 20 79 89 64 28 353 39 60 46 21 26 23 15 6 27 27 53 50 38 51 74 96 115 139 146
272 273 274 290 296 296 307 318 325 319 334 327 301 288 266 267 259 263 266 265 252 71 139 260 65 23 89 288 40 30 75 74 82 92 223 104 99 49 45 38 38 34 26 23 17 5 26 49 55 55 58 91 92 94
269 274 273 284 288 293 298 309 315 320 302 223 220 233 259 235 252 235 206 248 234 158 156 152 119 13 156 51 72 55 57 63 180 253 126 81 68 52 47 37 45 44 30 39 37 39 22 18 37 23 77 39 82 88
266 271 271 278 283 296 286 300 314 323 277 250 234 243 234 188 249 251 302 33 60 100 140 102 94 341 36 58 338 97 69 224 179 170 88 68 42 29 42 43 42 40 24 21 32 28 19 12 354 8 73 107 131 165
267 267 269 271 271 282 283 279 308 289 275 259 228 245 216 258 296 30 334 132 205 137 173 193 191 244 99 86 253 131 155 214 222 97 100 65 36 36 35 27 21 23 354 27 26 28 15 8 356 349 216 240 189 165
269 284 253 276 277 261 273 280 250 270 274 248 240 233 197 240 176 188 213 185 162 151 3 316 315 67 244 215 199 219 198 186 117 91 79 55 64 25 30 32 17 5 4 7 23 10 6 19 345 334 354 126 113 173
263 248 142 183 232 246 262 274 256 227 241 239 233 274 265 266 259 180 210 187 153 178 214 197 201 213 247 222 209 199 272 84 102 113 119 90 64 39 13 7 358 357 3 2 358 16 10 353 344 321 302 274 210 152
230 221 188 207 264 203 209 209 242 252 244 237 238 206 222 241 259 228 208 183 187 217 221 232 331 229 232 196 238 106 104 120 131 122 124 75 52 28 8 10 1 350 346 342 337 325 318 313 305 342 334 236 166 155
255 267 195 210 222 260 238 220 228 257 237 257 250 237 207 233 221 254 226 212 226 253 219 210 233 240 237 257 106 112 141 161 155 155 128 113 72 35 14 11 359 354 351 350 343 338 328 322 312 303 322 194 233 186
314 254 208 211 195 218 227 223 206 260 267 234 231 242 220 226 219 206 224 214 203 200 213 220 250 261 239 122 125 144 168 164 178 174 154 140 81 357 42 7 4 341 342 1 4 7 350 338 350 4 328 310 275 240
307 211 193 194 192 231 264 212 218 244 260 239 217 227 229 217 216 203 208 212 213 205 224 230 242 118 56 125 155 147 149 179 149 147 119 149 103 36 36 31 360 6 353 17 348 351 349 346 347 345 341 337 296 269
252 205 165 181 217 207 233 216 243 173 224 240 209 216 236 210 220 217 213 211 220 224 227 241 240 147 183 190 178 173 144 134 114 111 132 148 146 49 11 11 355 3 341 341 359 346 338 340 340 337 334 332 331 318
101 231 193 169 200 230 253 189 208 201 230 228 209 213 227 224 228 196 213 219 224 216 224 220 221 175 195 156 166 151 162 173 162 134 146 127 111 132 322 340 337 319 316 319 337 330 329 342 330 331 323 326 327 319
149 256 196 203 200 215 171 192 212 227 209 219 225 224 214 200 169 224 241 232 197 153 204 209 197 174 159 162 181 172 173 188 135 132 163 185 222 291 322 307 307 304 299 321 322 327 328 324 324 321 318 316 317 318
211 199 220 206 198 190 194 193 199 209 225 206 212 210 184 185 217 236 233 217 207 186 206 202 194 189 182 185 185 156 162 180 175 163 162 218 305 310 311 315 321 319 320 323 340 339 316 314 316 316 312 309 308 307
209 204 212 204 191 195 184 189 196 212 230 216 213 108 163 201 239 248 226 285 221 188 195 196 195 184 181 182 161 156 166 167 155 178 174 134 317 299 301 316 314 312 54 4 324 313 310 308 307 308 303 301 301 301
224 197 188 224 172 152 155 193 203 203 192 198 153 162 177 221 220 197 80 59 220 264 215 182 196 184 163 149 139 129 139 145 147 54 70 130 135 36 309 312 328 347 347 325 310 304 301 302 303 301 297 295 292 292
218 187 168 167 172 171 169 173 189 205 200 155 158 187 213 218 41 62 41 75 115 162 112 109 126 130 128 130 135 139 136 118 119 148 160 180 150 130 48 341 335 331 298 295 303 304 295 291 293 294 292 290 289 287
194 177 168 173 148 178 202 196 201 197 146 175 188 188 180 94 61 77 91 107 133 132 124 119 107 105 109 111 113 118 137 172 190 184 213 248 247 149 92 353 326 319 317 312 307 303 306 309 302 294 289 283 281 281
146 174 171 170 181 198 160 309 176 94 130 147 76 110 128 113 77 61 131 145 154 150 148 146 146 148 142 148 138 135 121 116 310 272 247 274 17 29 350 320 322 321 315 310 315 319 316 321 311 303 308 302 300 297
12 120 111 92 77 46 58 85 90 96 106 113 43 260 120 106 115 39 52 41 86 114 136 135 137 132 147 169 178 166 163 140 101 83 50 62 32 346 343 336 316 316 315 325 326 328 334 325 326 330 324 326 323 319
28 27 100 105 98 92 151 86 101 99 127 173 117 121 157 197 185 112 43 307 165 161 95 132 135 131 111 86 76 68 63 110 136 130 149 59 20 14 331 325 319 327 339 335 352 353 353 354 357 357 352 356 356 357
78 62 71 109 141 141 125 161 125 127 158 126 91 7 41 359 55 81 97 19 1 39 133 105 84 105 121 121 111 111 106 85 82 83 76 62 38 357 304 345 350 4 5 13 21 21 20 21 21 18 20 17 16 21